Location: Helsinki
(60.1699°N, 24.9384°E)
Time: 19:22:51
(UTC+03:00)

A-11 Canister half - Pass Details

Date: 02 June 2024
Orbit: 1525 x 1683 km, 47.3° (Epoch: 14 June)

Event Time Altitude Azimuth Distance (km) Brightness Sun altitude
Rises 00:18:15 0° 267° (W) 4,703 11.7 -6.7°
Reaches altitude 10° 00:21:39 10° 258° (WSW) 3,735 11.1 -6.8°
Maximum altitude 00:29:37 32° 201° (SSW) 2,452 9.7 -7.0°
Drops below altitude 10° 00:37:47 10° 143° (SE) 3,831 10.5 -7.2°
Sets 00:41:21 0° 134° (SE) 4,839 11.1 -7.3°
